Simultaneous Nadir Overpasses (SNOs) Predictions

Prediction of SNOs between FY3D and METOP-A Satellite Orbit:

Table of predicted SNOs for the next 14.0 days since TLE Epoch: 2/15/2020
Index Date (FY3D) Time (FY3D) Lat,Lon (FY3D) SZA (FY3D ) Date (METOP-A) Time (METOP-A) Lat,Lon (METOP-A) SZA (METOP-A ) Distance(km) Time Diff (sec)
1 02/15/2020 15:37:08 -75.87, 110.64 90.78 02/15/2020 15:38:13 -75.86, 114.23 91.07 97.59 65
2 02/15/2020 16:27:49 75.68, -81.41 88.97 02/15/2020 16:28:57 75.67, -79.02 88.78 65.68 68
3 02/15/2020 17:18:31 -75.59, 86.18 91.15 02/15/2020 17:19:41 -75.56, 87.95 91.32 49.18 70
4 02/15/2020 18:09:13 75.44,-106.03 88.67 02/15/2020 18:10:25 75.37,-105.28 88.52 22.30 72
5 02/15/2020 18:59:54 -75.30, 61.69 91.51 02/15/2020 19:01:08 -75.30, 61.85 91.55 4.41 74
6 02/15/2020 19:50:39 75.29,-130.95 88.47 02/15/2020 19:51:48 75.30,-130.82 88.45 4.03 69
7 02/15/2020 20:41:22 -75.25, 36.48 91.59 02/15/2020 20:42:30 -75.28, 36.45 91.58 3.31 68
8 02/15/2020 21:32:08 75.29,-156.31 88.44 02/15/2020 21:33:10 75.28,-156.21 88.41 2.80 62
9 02/15/2020 22:22:51 -75.25, 11.12 91.62 02/15/2020 22:23:52 -75.26, 11.06 91.62 2.46 61
10 02/15/2020 23:13:37 75.28, 178.33 88.41 02/15/2020 23:14:32 75.26, 178.39 88.37 2.60 55
11 02/16/2020 00:04:20 -75.24, -14.24 91.65 02/16/2020 00:05:14 -75.24, -14.34 91.66 2.89 54
12 02/16/2020 00:55:06 75.28, 152.98 88.38 02/16/2020 00:55:54 75.24, 153.00 88.33 3.61 48
13 02/16/2020 01:45:49 -75.24, -39.59 91.68 02/16/2020 01:46:35 -75.27, -39.59 91.66 3.90 46
14 02/16/2020 02:36:35 75.27, 127.62 88.35 02/16/2020 02:37:15 75.27, 127.74 88.33 3.44 40
15 02/16/2020 03:27:18 -75.23, -64.95 91.71 02/16/2020 03:27:57 -75.25, -64.99 91.70 2.61 39
16 02/16/2020 04:18:04 75.27, 102.26 88.32 02/16/2020 04:18:37 75.26, 102.34 88.29 2.72 33
17 02/16/2020 05:08:47 -75.23, -90.31 91.74 02/16/2020 05:09:19 -75.24, -90.38 91.74 2.37 32
18 02/16/2020 05:59:33 75.26, 76.90 88.29 02/16/2020 05:59:59 75.24, 76.95 88.25 3.23 26
19 02/16/2020 06:50:16 -75.22,-115.66 91.77 02/16/2020 06:50:41 -75.22,-115.78 91.78 3.41 25
20 02/16/2020 07:41:01 75.21, 51.69 88.21 02/16/2020 07:41:21 75.22, 51.55 88.22 3.90 20
21 02/16/2020 08:31:45 -75.22,-141.02 91.80 02/16/2020 08:32:02 -75.25,-141.04 91.78 3.05 17
22 02/16/2020 09:22:31 75.25, 26.19 88.23 02/16/2020 09:22:42 75.25, 26.30 88.21 3.12 11
23 02/16/2020 10:13:14 -75.21,-166.38 91.83 02/16/2020 10:13:24 -75.23,-166.43 91.82 2.15 10
24 02/16/2020 11:04:00 75.25, 0.83 88.20 02/16/2020 11:04:04 75.23, 0.90 88.17 3.06 4
25 02/16/2020 11:54:43 -75.21, 168.27 91.86 02/16/2020 11:54:46 -75.21, 168.17 91.86 2.67 3
26 02/16/2020 12:45:28 75.20, -24.38 88.12 02/16/2020 12:45:26 75.21, -24.49 88.14 3.42 2
27 02/16/2020 13:36:12 -75.21, 142.91 91.89 02/16/2020 13:36:07 -75.24, 142.92 91.86 3.67 5
28 02/16/2020 14:26:58 75.24, -49.88 88.14 02/16/2020 14:26:47 75.24, -49.75 88.13 3.69 11
29 02/16/2020 15:17:41 -75.20, 117.55 91.92 02/16/2020 15:17:29 -75.22, 117.52 91.90 2.31 12
30 02/16/2020 16:08:27 75.24, -75.24 88.11 02/16/2020 16:08:09 75.22, -75.15 88.10 3.16 18
31 02/16/2020 16:59:10 -75.20, 92.20 91.95 02/16/2020 16:58:51 -75.20, 92.13 91.94 2.09 19
32 02/16/2020 17:49:55 75.18,-100.46 88.03 02/16/2020 17:49:31 75.20,-100.54 88.06 3.13 24
33 02/16/2020 18:40:39 -75.19, 66.84 91.98 02/16/2020 18:40:13 -75.18, 66.73 91.98 3.25 26
34 02/16/2020 19:31:24 75.18,-125.81 88.00 02/16/2020 19:30:53 75.18,-125.94 88.02 3.57 31
35 02/16/2020 20:22:08 -75.19, 41.48 92.01 02/16/2020 20:21:34 -75.21, 41.47 91.98 2.78 34
36 02/16/2020 21:12:54 75.22,-151.31 88.02 02/16/2020 21:12:14 75.21,-151.20 88.02 3.49 40
37 02/16/2020 22:03:37 -75.18, 16.13 92.04 02/16/2020 22:02:56 -75.19, 16.08 92.02 1.81 41
38 02/16/2020 22:54:22 75.17,-176.53 87.94 02/16/2020 22:53:36 75.19,-176.59 87.98 3.08 46
39 02/16/2020 23:45:06 -75.18, -9.23 92.07 02/16/2020 23:44:18 -75.17, -9.32 92.06 2.45 48
40 02/17/2020 00:35:51 75.16, 158.11 87.91 02/17/2020 00:34:58 75.17, 158.01 87.94 3.01 53
41 02/17/2020 01:26:35 -75.17, -34.59 92.10 02/17/2020 01:25:39 -75.20, -34.58 92.06 3.45 56
42 02/17/2020 02:17:20 75.16, 132.76 87.88 02/17/2020 02:16:20 75.15, 132.62 87.90 4.00 60
43 02/17/2020 03:08:04 -75.17, -59.95 92.13 02/17/2020 03:07:01 -75.18, -59.97 92.10 1.99 63
44 02/17/2020 03:58:49 75.16, 107.40 87.85 02/17/2020 03:57:41 75.18, 107.36 87.90 3.29 68
45 02/17/2020 04:49:33 -75.16, -85.30 92.16 02/17/2020 04:48:23 -75.16, -85.36 92.13 1.79 70
46 02/17/2020 05:40:18 75.15, 82.04 87.82 02/17/2020 05:39:03 75.16, 81.97 87.86 2.65 75
47 02/17/2020 06:31:00 -75.06,-110.38 92.30 02/17/2020 06:29:47 -75.05,-111.03 92.25 18.62 73
48 02/17/2020 07:21:41 74.86, 57.51 87.45 02/17/2020 07:20:31 74.85, 55.77 87.60 50.65 70
49 02/17/2020 08:12:22 -74.77,-134.93 92.67 02/17/2020 08:11:13 -74.79,-137.09 92.47 62.97 69
50 02/17/2020 09:03:03 74.56, 32.94 87.09 02/17/2020 09:01:58 74.54, 29.60 87.34 99.18 65




NCC Satellite Simultaneous Nadir Overpasses (SNOs) Prediction Service
